Weather History for KTIW - January, 2013

Change the Weather History Date:

Sunday, January 6, 2013

  Actual Average Record
Temperature  
Mean Temperature 42 °F -  
Max Temperature 45 °F 43 °F 55 °F (2002)
Min Temperature 39 °F 36 °F 24 °F (2004)
Degree Days  
Heating Degree Days 23    
Moisture  
Dew Point 37 °F    
Average Humidity 84    
Maximum Humidity 89    
Minimum Humidity 74    
Precipitation  
Precipitation 0.13 in - - ()
Sea Level Pressure  
Sea Level Pressure 30.13 in    
Wind  
Wind Speed 7 mph (South)    
Max Wind Speed 13 mph    
Max Gust Speed 20 mph    
Visibility 10 miles    
Events Rain    
Averages and records for this station are not official NWS values.
T = Trace of Precipitation, MM = Missing Value Source: NWS Daily Summary

Daily Weather History Graph

Daily Weather History Graph

Search for Another Location

Airport or City:

Trip Planner

Search our weather history database for the weather conditions in past years. The results will help you decide how hot, cold, wet, or windy it might be!

Date:

Astronomy

Jan. 06, 2013 Rise Set
Actual Time 7:56 AM PST 4:36 PM PST
Civil Twilight 7:21 AM PST 5:11 PM PST
Nautical Twilight 6:42 AM PST 5:50 PM PST
Astronomical Twilight 6:05 AM PST 6:27 PM PST
Moon 2:08 AM PST (1/6) 12:14 PM PST (1/6)
Length of Visible Light 9h 50m
Length of Day
8h 40m
Waning Crescent, 32% of the Moon is Illuminated
Jan 6
Waning Crescent
Jan 11
New
Jan 18
First Quarter
Jan 26
Full
Feb 3
Last Quarter

Hourly Weather History & Observations

Time (PST) Temp. Windchill Dew Point Humidity Pressure Visibility Wind Dir Wind Speed Gust Speed Precip Events Conditions
12:00 AM 39.2 °F 33.0 °F 35.6 °F 87% 30.16 in 10.0 mi South 9.2 mph - N/A   Mostly Cloudy
12:10 AM 39.2 °F 34.2 °F 35.6 °F 87% 30.15 in 10.0 mi South 6.9 mph - N/A   Scattered Clouds
12:53 AM 39.9 °F 33.4 °F 36.0 °F 86% 30.16 in 10.0 mi South 10.4 mph - N/A   Clear
1:53 AM 39.0 °F 34.0 °F 36.0 °F 89% 30.18 in 10.0 mi South 6.9 mph - N/A   Clear
2:53 AM 39.9 °F 34.5 °F 36.0 °F 86% 30.18 in 10.0 mi SSE 8.1 mph - N/A   Overcast
3:53 AM 41.0 °F 35.8 °F 35.6 °F 81% 30.15 in 10.0 mi South 8.1 mph - N/A   Overcast
4:05 AM 41.0 °F 37.1 °F 37.4 °F 87% 30.15 in 10.0 mi SSW 5.8 mph - N/A   Overcast
4:53 AM 39.9 °F - 36.0 °F 86% 30.16 in 10.0 mi Calm Calm - N/A   Overcast
5:53 AM 39.9 °F 37.8 °F 36.0 °F 86% 30.17 in 10.0 mi South 3.5 mph - N/A   Overcast
6:13 AM 39.2 °F 35.0 °F 35.6 °F 87% 30.16 in 10.0 mi SSW 5.8 mph - N/A   Overcast
6:35 AM 39.2 °F 35.9 °F 35.6 °F 87% 30.16 in 9.0 mi SSW 4.6 mph - 0.00 in Rain Light Rain
6:53 AM 39.9 °F 34.5 °F 35.1 °F 83% 30.17 in 10.0 mi South 8.1 mph - 0.01 in Rain Light Rain
7:38 AM 39.2 °F 35.0 °F 35.6 °F 87% 30.16 in 10.0 mi South 5.8 mph - 0.01 in   Overcast
7:48 AM 39.2 °F 35.0 °F 35.6 °F 87% 30.17 in 10.0 mi SSW 5.8 mph - N/A   Overcast
7:53 AM 39.9 °F 37.8 °F 36.0 °F 86% 30.18 in 10.0 mi WSW 3.5 mph - 0.02 in   Overcast
8:53 AM 41.0 °F 37.1 °F 37.0 °F 86% 30.19 in 10.0 mi SSW 5.8 mph - 0.00 in   Mostly Cloudy
9:53 AM 42.1 °F 40.2 °F 39.0 °F 89% 30.20 in 10.0 mi South 3.5 mph - N/A   Mostly Cloudy
10:53 AM 43.0 °F 39.5 °F 39.0 °F 86% 30.19 in 10.0 mi South 5.8 mph - 0.01 in   Mostly Cloudy
11:53 AM 43.0 °F 39.5 °F 39.0 °F 86% 30.17 in 10.0 mi SSW 5.8 mph - 0.00 in Rain Light Rain
12:53 PM 43.0 °F 39.5 °F 39.0 °F 86% 30.15 in 10.0 mi SSW 5.8 mph - 0.00 in   Overcast
1:53 PM 44.1 °F 38.1 °F 37.9 °F 79% 30.13 in 10.0 mi South 11.5 mph - N/A   Overcast
2:53 PM 45.0 °F 38.9 °F 37.0 °F 74% 30.13 in 10.0 mi South 12.7 mph 19.6 mph N/A   Overcast
3:53 PM 45.0 °F 39.7 °F 37.0 °F 74% 30.11 in 10.0 mi South 10.4 mph - N/A   Overcast
4:53 PM 44.1 °F 40.1 °F 37.0 °F 76% 30.10 in 10.0 mi SSW 6.9 mph - N/A   Overcast
5:53 PM 44.1 °F 39.5 °F 37.0 °F 76% 30.09 in 10.0 mi SSW 8.1 mph - 0.00 in Rain Light Rain
6:53 PM 44.1 °F 38.6 °F 37.0 °F 76% 30.08 in 10.0 mi South 10.4 mph - 0.01 in Rain Light Rain
7:53 PM 43.0 °F 38.8 °F 36.0 °F 76% 30.07 in 10.0 mi South 6.9 mph - 0.01 in Rain Light Rain
8:53 PM 43.0 °F - 37.9 °F 82% 30.06 in 10.0 mi Calm Calm - 0.01 in Rain Light Rain
9:02 PM 42.8 °F - 37.4 °F 81% 30.04 in 10.0 mi Calm Calm - 0.01 in Rain Light Rain
9:53 PM 42.1 °F - 39.0 °F 89% 30.03 in 10.0 mi Calm Calm - 0.04 in Rain Light Rain
10:06 PM 42.8 °F 40.1 °F 39.2 °F 87% 30.01 in 10.0 mi SE 4.6 mph - 0.01 in Rain Light Rain
10:53 PM 42.1 °F 39.2 °F 37.9 °F 85% 30.01 in 10.0 mi South 4.6 mph - 0.01 in Rain Light Rain
11:53 PM 42.1 °F 40.2 °F 37.9 °F 85% 29.99 in 10.0 mi South 3.5 mph - 0.01 in Rain Light Rain